DELTA 1 DEB, 10713

Orbit data source: Space-Track

DELTA 1 DEB, 10713 is space debris in SSO originally from a launch on Thu, 29 Jul 1976 UTC launched from the Air Force Western Test Range (AFWTR). Debris objects in space refer to the collection of defunct objects orbiting the Earth. Examples of debris include non-operational satellites, rocket bodies, and fragments generated from explosions, collisions, or faulty payload assembly.

Loading next visibility...
Identifier
10713, 1976-077AJ
Orbit
SSO
Country
Flag of USUS
Related business
Manufacturer
Unknown
Mission
Spacecraft
Bus & Motor
Unknown
Mass
Unknown
Launch date (UTC)
1976-07-29 (49 years ago)
Launch vehicle
Unknown
Launch site
Air Force Western Test Range (AFWTR)
Object type
Payload
Rocket body
Debris
Shape & HBR
Unknown shape, 1.1 m
Radar Cross Section
Small (<0.1 m²)

Expand to show TLE details & history
Last TLE update: 10 hours ago

TLE from 10 hours ago
0 DELTA 1 DEB
1 10713U 76077AJ  25291.23605609  .00002253  00000-0  66626-2 0  9999
2 10713 101.5573 101.4291 0128133  47.4975  28.3241 13.06864459295965
Epoch: 2025-10-18T05:39Z
TLE epoch observation values (Epoch: 2025-10-18T05:39:55.246Z)
Latitude
72.39216°
Longitude
-50.39166°
Altitude
1,162.035 km
Speed
7.32 km/s
True Right ascension
04h 06m 14s
True Declination
72° 17' 53"
Sunlit
Object was in daylight at epoch
Visualization orbit readout
Latitude
Unknown
Longitude
Unknown
Altitude
Unknown
Speed
Unknown
Apparent Right ascension
Unknown
Apparent Declination
Unknown
Sunlit
N/A
Visualization observer readout
Local Sidereal Time
10:35:24
Azimuth
Unknown
Elevation
Unknown
Doppler factor
Unknown
Orbital elements
Apogee altitude
1,330.294 km
Perigee altitude
1,135.252 km
Semi-major axis
7,610.91 km
Eccentricity
0.01281
Inclination
101.5573°
RAAN
101.4291°
Arg. of periapsis
47.4975°
True anomaly
29.03068°
Mean anomaly
28.3241°
Eccentric anomaly
28.67639°
Mean motion
3.2688 °/min
Orbital period
110.13 mins
BSTAR
0.0066626
Loading maneuver chart data...
Computing Atmospheric mass density...
Loading historical data...
Loading historical data...
Loading historical data...
Loading historical data...
Loading historical data...
Loading historical data...
Loading historical data...

Documentation

Showing up to 5 results
|